• In Moldova, Republic
  • List of Countries
  • For 7 days
  • Water Temperature
  • Satellite Maps
  • Weather Map
  • Weather Widgets
  • user-avatar
    Login

    Hourly Weather Kalgoorlie

    Today, 22 January, Monday

    Time Temperature Precipitation Wind Pressure Humidity
    00:00 +29°C° 1.9 mm 3 mps 726 mmHg 59%
    01:00 +28°C° 1.9 mm 3 mps 725 mmHg 64%
    02:00 +28°C° 0 mm 4 mps 725 mmHg 65%
    03:00 +27°C° 0.7 mm 3 mps 726 mmHg 67%
    04:00 +27°C° 0.7 mm 3 mps 726 mmHg 70%
    05:00 +26°C° 0.7 mm 3 mps 726 mmHg 72%
    06:00 +27°C° 0.5 mm 3 mps 726 mmHg 68%
    07:00 +28°C° 0.5 mm 4 mps 727 mmHg 65%
    08:00 +28°C° 0 mm 5 mps 727 mmHg 58%
    09:00 +30°C° 0 mm 5 mps 727 mmHg 52%
    10:00 +33°C° 0 mm 5 mps 727 mmHg 45%
    11:00 +35°C° 0 mm 5 mps 726 mmHg 39%
    12:00 +37°C° 0 mm 5 mps 726 mmHg 36%
    13:00 +39°C° 0 mm 5 mps 726 mmHg 33%
    14:00 +40°C° 0 mm 5 mps 725 mmHg 30%
    15:00 +40°C° 0 mm 5 mps 725 mmHg 30%
    16:00 +40°C° 0 mm 5 mps 725 mmHg 29%
    17:00 +40°C° 0 mm 5 mps 724 mmHg 29%
    18:00 +39°C° 0.2 mm 5 mps 725 mmHg 32%
    19:00 +37°C° 0.2 mm 5 mps 725 mmHg 35%
    20:00 +36°C° 0.2 mm 6 mps 725 mmHg 38%
    21:00 +34°C° 3 mm 5 mps 725 mmHg 46%
    22:00 +32°C° 3 mm 5 mps 725 mmHg 55%
    23:00 +29°C° 3 mm 5 mps 725 mmHg 64%

    Tomorrow, 23 January, Tuesday

    Time Temperature Precipitation Wind Pressure Humidity
    00:00 +28°C° 0.6 mm 6 mps 725 mmHg 66%
    01:00 +28°C° 0.6 mm 8 mps 725 mmHg 68%
    02:00 +27°C° 0.6 mm 9 mps 725 mmHg 71%
    03:00 +26°C° 0.3 mm 8 mps 725 mmHg 71%
    04:00 +26°C° 0.3 mm 8 mps 725 mmHg 71%
    05:00 +26°C° 0.3 mm 7 mps 725 mmHg 72%
    06:00 +27°C° 0 mm 7 mps 725 mmHg 67%
    07:00 +28°C° 0 mm 8 mps 725 mmHg 62%
    08:00 +29°C° 0 mm 8 mps 725 mmHg 57%
    09:00 +32°C° 0 mm 7 mps 725 mmHg 51%
    10:00 +34°C° 0 mm 6 mps 725 mmHg 44%
    11:00 +36°C° 0 mm 5 mps 725 mmHg 37%
    12:00 +37°C° 0 mm 4 mps 725 mmHg 35%
    13:00 +38°C° 0 mm 3 mps 724 mmHg 32%
    14:00 +39°C° 0 mm 3 mps 724 mmHg 29%
    15:00 +38°C° 3.1 mm 4 mps 723 mmHg 35%
    16:00 +37°C° 3.1 mm 5 mps 722 mmHg 41%
    17:00 +36°C° 3.1 mm 7 mps 721 mmHg 47%
    18:00 +34°C° 3.2 mm 6 mps 722 mmHg 54%
    19:00 +32°C° 3.2 mm 6 mps 722 mmHg 61%
    20:00 +30°C° 3.2 mm 5 mps 723 mmHg 68%
    21:00 +29°C° 2 mm 6 mps 723 mmHg 71%
    22:00 +28°C° 2 mm 7 mps 724 mmHg 74%
    23:00 +27°C° 2 mm 8 mps 724 mmHg 78%

    Day after tomorrow, 24 January, Wednesday

    Time Temperature Precipitation Wind Pressure Humidity
    00:00 +27°C° 0.3 mm 7 mps 724 mmHg 77%
    01:00 +27°C° 0.3 mm 7 mps 723 mmHg 77%
    02:00 +27°C° 0.3 mm 6 mps 723 mmHg 77%
    03:00 +26°C° 0.2 mm 5 mps 723 mmHg 76%
    04:00 +26°C° 0.2 mm 5 mps 723 mmHg 75%
    05:00 +26°C° 0.2 mm 4 mps 723 mmHg 73%
    06:00 +27°C° 0.1 mm 4 mps 723 mmHg 70%
    07:00 +27°C° 0.1 mm 4 mps 723 mmHg 66%
    08:00 +28°C° 0.1 mm 3 mps 724 mmHg 63%
    09:00 +30°C° 0 mm 4 mps 723 mmHg 57%
    10:00 +32°C° 0 mm 4 mps 723 mmHg 52%
    11:00 +34°C° 0 mm 5 mps 723 mmHg 46%
    12:00 +35°C° 0 mm 5 mps 722 mmHg 43%
    13:00 +36°C° 0 mm 4 mps 722 mmHg 40%
    14:00 +37°C° 0 mm 4 mps 721 mmHg 37%
    15:00 +38°C° 0 mm 6 mps 721 mmHg 40%
    16:00 +36°C° 0 mm 7 mps 720 mmHg 43%
    17:00 +35°C° 0 mm 8 mps 719 mmHg 45%
    18:00 +34°C° 0 mm 9 mps 720 mmHg 47%
    19:00 +33°C° 0 mm 9 mps 720 mmHg 49%
    20:00 +32°C° 0 mm 9 mps 720 mmHg 51%
    21:00 +31°C° 0.1 mm 9 mps 720 mmHg 54%
    22:00 +29°C° 0.1 mm 9 mps 721 mmHg 57%
    23:00 +28°C° 0.1 mm 9 mps 721 mmHg 60%

    25 January, Thursday

    Time Temperature Precipitation Wind Pressure Humidity
    00:00 +27°C° 0.6 mm 8 mps 721 mmHg 65%
    01:00 +26°C° 0.6 mm 8 mps 721 mmHg 71%
    02:00 +24°C° 0.6 mm 7 mps 720 mmHg 76%
    03:00 +23°C° 0.3 mm 7 mps 720 mmHg 78%
    04:00 +23°C° 0.3 mm 7 mps 721 mmHg 79%
    05:00 +22°C° 0.3 mm 8 mps 721 mmHg 81%
    06:00 +23°C° 0.1 mm 7 mps 721 mmHg 77%
    07:00 +24°C° 0.1 mm 7 mps 721 mmHg 73%
    08:00 +24°C° 0.1 mm 7 mps 721 mmHg 69%
    09:00 +27°C° 0.1 mm 7 mps 721 mmHg 63%
    10:00 +29°C° 0.1 mm 6 mps 721 mmHg 57%
    11:00 +32°C° 0.1 mm 5 mps 721 mmHg 51%
    12:00 +33°C° 0 mm 5 mps 721 mmHg 47%
    13:00 +34°C° 0 mm 4 mps 720 mmHg 43%
    14:00 +35°C° 0 mm 3 mps 720 mmHg 40%
    15:00 +35°C° 0 mm 4 mps 720 mmHg 40%
    16:00 +35°C° 0 mm 5 mps 719 mmHg 40%
    17:00 +35°C° 0 mm 6 mps 719 mmHg 40%
    18:00 +34°C° 0 mm 6 mps 720 mmHg 45%
    19:00 +33°C° 0 mm 7 mps 720 mmHg 49%
    20:00 +31°C° 0 mm 8 mps 721 mmHg 54%
    21:00 +29°C° 0 mm 8 mps 721 mmHg 57%
    22:00 +28°C° 0 mm 8 mps 722 mmHg 61%
    23:00 +27°C° 0 mm 8 mps 722 mmHg 64%

    26 January, Friday

    Time Temperature Precipitation Wind Pressure Humidity
    00:00 +26°C° 0 mm 7 mps 722 mmHg 67%
    01:00 +26°C° 0 mm 7 mps 721 mmHg 69%
    02:00 +24°C° 0 mm 6 mps 721 mmHg 72%
    03:00 +23°C° 0 mm 6 mps 721 mmHg 73%
    04:00 +23°C° 0 mm 5 mps 721 mmHg 74%
    05:00 +23°C° 0 mm 5 mps 721 mmHg 75%
    06:00 +23°C° 0 mm 4 mps 721 mmHg 71%
    07:00 +25°C° 0 mm 4 mps 722 mmHg 66%
    08:00 +26°C° 0 mm 4 mps 722 mmHg 62%
    09:00 +28°C° 0 mm 3 mps 722 mmHg 56%
    10:00 +30°C° 0 mm 2 mps 722 mmHg 50%
    11:00 +31°C° 0 mm 2 mps 721 mmHg 44%
    12:00 +34°C° 0 mm 2 mps 721 mmHg 39%
    13:00 +34°C° 0 mm 1 mps 720 mmHg 35%
    14:00 +36°C° 0 mm 1 mps 720 mmHg 30%
    15:00 +36°C° 0 mm 1 mps 720 mmHg 28%
    16:00 +38°C° 0 mm 2 mps 720 mmHg 26%
    17:00 +38°C° 0 mm 2 mps 720 mmHg 23%
    18:00 +38°C° 0 mm 2 mps 720 mmHg 24%
    19:00 +37°C° 0 mm 3 mps 720 mmHg 26%
    20:00 +36°C° 0 mm 4 mps 720 mmHg 27%
    21:00 +35°C° 0 mm 4 mps 720 mmHg 30%
    22:00 +35°C° 0 mm 4 mps 720 mmHg 33%
    23:00 +34°C° 0 mm 4 mps 720 mmHg 36%

    27 January, Saturday

    Time Temperature Precipitation Wind Pressure Humidity
    00:00 +33°C° 0 mm 5 mps 720 mmHg 40%
    01:00 +32°C° 0 mm 5 mps 720 mmHg 43%
    02:00 +30°C° 0 mm 6 mps 720 mmHg 46%
    03:00 +30°C° 0 mm 6 mps 720 mmHg 48%
    04:00 +29°C° 0 mm 6 mps 720 mmHg 51%
    05:00 +29°C° 0 mm 6 mps 720 mmHg 53%
    06:00 +30°C° 0 mm 7 mps 720 mmHg 50%
    07:00 +32°C° 0 mm 7 mps 720 mmHg 47%
    08:00 +33°C° 0 mm 8 mps 721 mmHg 44%
    09:00 +36°C° 0 mm 7 mps 721 mmHg 39%
    10:00 +39°C° 0 mm 7 mps 720 mmHg 34%
    11:00 +41°C° 0 mm 7 mps 720 mmHg 29%
    12:00 +42°C° 0 mm 6 mps 719 mmHg 27%
    13:00 +42°C° 0 mm 5 mps 719 mmHg 24%
    14:00 +43°C° 0 mm 5 mps 718 mmHg 22%
    15:00 +42°C° 0.2 mm 5 mps 718 mmHg 24%
    16:00 +41°C° 0.2 mm 5 mps 718 mmHg 26%
    17:00 +40°C° 0.2 mm 6 mps 718 mmHg 27%
    18:00 +38°C° 0.2 mm 7 mps 719 mmHg 34%
    19:00 +35°C° 0.2 mm 7 mps 720 mmHg 41%
    20:00 +33°C° 0.2 mm 8 mps 720 mmHg 47%
    21:00 +31°C° 0.3 mm 9 mps 721 mmHg 55%
    22:00 +28°C° 0.3 mm 9 mps 722 mmHg 64%
    23:00 +26°C° 0.3 mm 10 mps 722 mmHg 72%
    Show more